Starlink 32853

operational
NORAD ID: 62818 Int'l Des: 2025-018 Owner: SPXS Country: US Constellation: starlink
LEOCIRCULAR

Über Starlink 32853

Beschreibung wird geladen...

Live-Position

3D-Globus wird geladen...

Nächste Überflüge

Höhenverlauf

Altitude vs Time

uPlot chart will show altitude changes over time

Zweizeiliger Elementsatz

1 62818U 25018N 25258.13320053 .00064445 00000-0 21669-2 0 9999
2 62818 53.1600 44.7698 0001189 82.1518 277.9617 15.30234252 36302
Epoch: 15. Sept. 2025 • Age: 11 hours

Aktueller Status

Höhe 490.2 km
Geschwindigkeit 7.62 km/s
Subsatellitenpunkt -43.50°S, 154.24°E
Startdatum 24. Jan. 2025
Alter 0.6 years
Typ internet

Technische Details

Klassifizierung Payload
Masse 730.00 kg
Trockenmasse 700.00 kg
Gesamtmasse 730.00 kg
Länge 0.30 m
Durchmesser 4.10 m
Spannweite 29.00 m
Form Box + pan
Hersteller SPXS
Bus-Typ Starlink V2M
Phasenstatus In Orbit
Besitzer/Staat SPXS/US

Große Konstellationen

Loading constellations...